Mattoon, IL

7:54 AM CST on November 15, 2019 (GMT -0600)
Coles County Memorial

Weather History for KMTO - September, 2019

Change the Weather History Date:

Sunday, September 22, 2019

  Actual Average Record
Temperature  
Mean Temperature 78 °F 64 °F  
Max Temperature 86 °F 76 °F 94 °F (2017)
Min Temperature 69 °F 53 °F 34 °F (1983)
Degree Days  
Heating Degree Days 0 3  
Month to date heating degree days 0 27  
Since 1 July heating degree days 0 32  
Cooling Degree Days 13 2  
Month to date cooling degree days 186 102  
Year to date cooling degree days 1171 1022  
Growing Degree Days 26 (Base 50)    
Moisture  
Dew Point 66 °F    
Average Humidity 72    
Maximum Humidity 93    
Minimum Humidity 51    
Precipitation  
Precipitation 0.43 in 0.09 in 1.70 in (1970)
Month to date precipitation 0.90 2.23  
Year to date precipitation 26.03 28.13  
Sea Level Pressure  
Sea Level Pressure 29.96 in    
Wind  
Wind Speed 10 mph (SSW)    
Max Wind Speed 21 mph    
Max Gust Speed 33 mph    
Visibility 9 miles    
Events Rain    
T = Trace of Precipitation, MM = Missing Value Source: NWS Daily Summary

Daily Weather History Graph

Daily Weather History Graph

Search for Another Location

Airport or City:

Astronomy

Sep. 22, 2019 Rise Set
Actual Time 6:40 AM CDT 6:50 PM CDT
Civil Twilight 6:13 AM CDT 7:17 PM CDT
Nautical Twilight 5:42 AM CDT 7:48 PM CDT
Astronomical Twilight 5:10 AM CDT 8:20 PM CDT
Moon No Moon Rise 2:44 PM CDT (9/22)
Length of Visible Light 13h 03m
Length of Day
12h 09m
Last Quarter, 44% of the Moon is Illuminated
Sep 22
Last Quarter
Sep 28
New
Oct 5
First Quarter
Oct 13
Full
Oct 21
Last Quarter

Hourly Weather History & Observations

Time (CDT) Temp. Heat Index Dew Point Humidity Pressure Visibility Wind Dir Wind Speed Gust Speed Precip Events Conditions
12:53 AM 73.0 °F - 61.0 °F 66% 30.05 in 10.0 mi South 6.9 mph - N/A   Mostly Cloudy
1:53 AM 73.0 °F - 60.1 °F 64% 30.05 in 10.0 mi South 8.1 mph - N/A   Overcast
2:53 AM 72.0 °F - 61.0 °F 68% 30.04 in 10.0 mi South 6.9 mph - N/A   Scattered Clouds
3:53 AM 71.1 °F - 60.1 °F 68% 30.03 in 10.0 mi South 8.1 mph - N/A   Clear
4:53 AM 71.1 °F - 60.1 °F 68% 30.02 in 10.0 mi South 10.4 mph - N/A   Clear
5:53 AM 70.0 °F - 60.1 °F 71% 30.02 in 10.0 mi South 9.2 mph - N/A   Clear
6:53 AM 69.1 °F - 60.1 °F 73% 30.02 in 10.0 mi South 10.4 mph - N/A   Clear
7:53 AM 71.1 °F - 60.1 °F 68% 30.02 in 10.0 mi South 9.2 mph - N/A   Clear
8:53 AM 73.9 °F - 60.1 °F 62% 30.01 in 10.0 mi South 12.7 mph 24.2 mph N/A   Clear
9:53 AM 78.1 °F - 61.0 °F 56% 30.00 in 10.0 mi South 17.3 mph 26.5 mph N/A   Clear
10:53 AM 80.1 °F 81.1 °F 61.0 °F 52% 29.99 in 10.0 mi South 13.8 mph 24.2 mph N/A   Clear
11:53 AM 82.0 °F 83.4 °F 64.0 °F 54% 29.98 in 10.0 mi SSW 12.7 mph 27.6 mph N/A   Clear
12:53 PM 84.0 °F 85.4 °F 64.0 °F 51% 29.96 in 10.0 mi SSW 11.5 mph 24.2 mph N/A   Mostly Cloudy
1:53 PM 82.9 °F 84.6 °F 64.9 °F 54% 29.93 in 10.0 mi SSW 13.8 mph 26.5 mph N/A   Mostly Cloudy
2:53 PM 82.9 °F 85.0 °F 66.0 °F 56% 29.91 in 10.0 mi SSW 11.5 mph 20.7 mph N/A   Overcast
3:53 PM 84.9 °F 86.6 °F 64.9 °F 51% 29.87 in 10.0 mi South 12.7 mph - 0.00 in Rain Light Rain
4:53 PM 82.9 °F 84.4 °F 64.0 °F 53% 29.87 in 10.0 mi South 11.5 mph 26.5 mph 0.00 in   Clear
5:53 PM 80.1 °F 82.1 °F 66.0 °F 62% 29.87 in 10.0 mi SSW 10.4 mph 20.7 mph 0.00 in Rain Light Rain
6:48 PM 73.4 °F - 69.8 °F 88% 29.91 in 2.0 mi SW 9.2 mph 24.2 mph 0.13 in Rain Rain
6:53 PM 73.0 °F - 71.1 °F 93% 29.90 in 4.0 mi SSW 8.1 mph 21.9 mph 0.13 in Rain Light Rain
7:43 PM 72.0 °F - 70.0 °F 93% 29.93 in 10.0 mi WSW 4.6 mph - 0.02 in Rain Light Rain
7:53 PM 72.0 °F - 70.0 °F 93% 29.93 in 10.0 mi SSW 5.8 mph - 0.02 in   Overcast
8:06 PM 72.0 °F - 70.0 °F 93% 29.94 in 10.0 mi Variable 4.6 mph - 0.00 in Rain Light Rain
8:53 PM 72.0 °F - 70.0 °F 93% 29.93 in 10.0 mi South 4.6 mph - 0.01 in Rain Light Rain
9:14 PM 72.0 °F - 70.0 °F 93% 29.95 in 10.0 mi South 5.8 mph - 0.00 in   Overcast
9:33 PM 72.0 °F - 70.0 °F 93% 29.94 in 10.0 mi SSW 5.8 mph - 0.00 in Rain Light Rain
9:53 PM 72.0 °F - 70.0 °F 93% 29.92 in 8.0 mi South 9.2 mph - 0.01 in   Mostly Cloudy
10:10 PM 72.0 °F - 70.0 °F 93% 29.94 in 10.0 mi South 9.2 mph - 0.01 in   Overcast
10:18 PM 72.0 °F - 70.0 °F 93% 29.95 in 10.0 mi SSW 6.9 mph - 0.01 in   Overcast
10:53 PM 72.0 °F - 70.0 °F 93% 29.93 in 10.0 mi South 8.1 mph - 0.01 in   Overcast
11:40 PM 71.1 °F - 69.1 °F 93% 29.93 in 1.8 mi South 9.2 mph - 0.13 in Rain Heavy Rain
11:53 PM 70.0 °F - 69.1 °F 97% 29.92 in 2.0 mi SSW 8.1 mph - 0.22 in Rain Heavy Rain